Weather History for Istres, France

Change the Weather History Date:

Thursday, May 29, 2014

  Actual Average (LFML) Record (LFML)
Temperature  
Mean Temperature 66 °F -  
Max Temperature 78 °F 76 °F 87 °F (2003)
Min Temperature 54 °F 59 °F 47 °F (2013)
Cooling Degree Days 1    
Growing Degree Days 16 (Base 50)    
Moisture  
Dew Point 46 °F    
Average Humidity 46    
Maximum Humidity 94    
Minimum Humidity 19    
Precipitation  
Precipitation 0.00 in - - ()
Sea Level Pressure  
Sea Level Pressure 29.88 in    
Wind  
Wind Speed 12 mph ()    
Max Wind Speed 25 mph    
Max Gust Speed -    
Visibility 6.6 miles    
Events      
Averages and records for this station are not official NWS values.
T = Trace of Precipitation, MM = Missing Value Source: Averaged Metar Reports

Daily Weather History Graph

Daily Weather History Graph

Search for Another Location

Airport:

Trip Planner

Search our weather history database for the weather conditions in past years. The results will help you decide how hot, cold, wet, or windy it might be!

Date:

Astronomy

May. 29, 2014 Rise Set
Actual Time 6:03 AM CEST 9:11 PM CEST
Civil Twilight 5:29 AM CEST 9:46 PM CEST
Nautical Twilight 4:44 AM CEST 10:31 PM CEST
Astronomical Twilight 3:51 AM CEST 11:24 PM CEST
Moon 6:46 AM CEST 9:47 PM CEST
Length of Visible Light 16h 17m
Length of Day
15h 07m
New Moon, 0% of the Moon is Illuminated
May 29
New Moon
Jun 5
First Quarter
Jun 13
Full
Jun 19
Last Quarter
Jun 27
New

Hourly Weather History & Observations

Time (CEST) Temp. Dew Point Humidity Pressure Visibility Wind Dir Wind Speed Gust Speed Precip Events Conditions
12:00 AM 59 °F 53 °F 76% 29.90 in 34 mi NNW 2.3 mph - -   Clear
12:00 AM 59.0 °F 53.6 °F 82% 29.89 in 6.2 mi NNW 2.3 mph - N/A   Unknown
12:30 AM 57.2 °F 51.8 °F 82% 29.89 in 6.2 mi NW 4.6 mph - N/A   Unknown
1:00 AM 56 °F 52 °F 83% 29.89 in 31 mi West 5.8 mph - -   Clear
1:00 AM 57.2 °F 51.8 °F 82% 29.89 in 6.2 mi West 5.8 mph - N/A   Unknown
1:30 AM 55.4 °F 51.8 °F 88% 29.86 in 6.2 mi West 5.8 mph - N/A   Unknown
2:00 AM 56 °F 54 °F 89% 29.88 in 17 mi West 8.1 mph - -   Clear
2:00 AM 55.4 °F 53.6 °F 94% 29.86 in 6.2 mi West 8.1 mph - N/A   Unknown
2:30 AM 55.4 °F 51.8 °F 88% 29.86 in 6.2 mi NW 4.6 mph - N/A   Unknown
3:00 AM 55 °F 50 °F 79% 29.87 in 22 mi NNW 4.6 mph - -   Clear
3:00 AM 55.4 °F 50.0 °F 82% 29.86 in 6.2 mi NNW 4.6 mph - N/A   Unknown
3:30 AM 55.4 °F 48.2 °F 77% 29.86 in 6.2 mi NNW 5.8 mph - N/A   Unknown
4:00 AM 61 °F 47 °F 49% 29.86 in 37 mi North 13.8 mph - -   Clear
4:00 AM 60.8 °F 46.4 °F 59% 29.86 in 6.2 mi North 13.8 mph - N/A   Unknown
4:30 AM 60.8 °F 46.4 °F 59% 29.86 in 6.2 mi NNW 13.8 mph - N/A   Unknown
5:00 AM 62 °F 46 °F 44% 29.87 in 37 mi North 15.0 mph - -   Clear
5:00 AM 62.6 °F 46.4 °F 55% 29.86 in 6.2 mi North 15.0 mph - N/A   Unknown
5:30 AM 60.8 °F 46.4 °F 59% 29.86 in 6.2 mi NNW 15.0 mph - N/A   Unknown
6:00 AM 61 °F 45 °F 45% 29.87 in 37 mi NNW 17.3 mph - -   Clear
6:00 AM 60.8 °F 44.6 °F 55% 29.86 in 6.2 mi NNW 17.3 mph - N/A   Unknown
6:30 AM 59.0 °F 46.4 °F 63% 29.86 in 6.2 mi NW 13.8 mph - N/A   Unknown
7:00 AM 60 °F 46 °F 50% 29.88 in 11 mi NW 15.0 mph - -   Clear
7:00 AM 60.8 °F 46.4 °F 59% 29.86 in 6.2 mi NW 15.0 mph - N/A   Unknown
7:30 AM 60.8 °F 46.4 °F 59% 29.86 in 6.2 mi NW 13.8 mph - N/A   Unknown
8:00 AM 63 °F 46 °F 42% 29.89 in 22 mi NNW 16.1 mph - -   Clear
8:00 AM 62.6 °F 46.4 °F 55% 29.89 in 6.2 mi NNW 16.1 mph - N/A   Unknown
8:30 AM 64.4 °F 46.4 °F 52% 29.89 in 6.2 mi NNW 18.4 mph - N/A   Unknown
9:00 AM 65 °F 46 °F 39% 29.90 in 22 mi NNW 19.6 mph - -   Clear
9:00 AM 64.4 °F 46.4 °F 52% 29.89 in 6.2 mi NNW 19.6 mph - N/A   Unknown
9:30 AM 66.2 °F 46.4 °F 49% 29.89 in 6.2 mi NNW 18.4 mph - N/A   Unknown
10:00 AM 67 °F 46 °F 36% 29.91 in 31 mi North 19.6 mph - -   Clear
10:00 AM 66.2 °F 46.4 °F 49% 29.89 in 6.2 mi North 19.6 mph - N/A   Unknown
10:30 AM 68.0 °F 46.4 °F 46% 29.89 in 6.2 mi North 20.7 mph - N/A   Unknown
11:00 AM 69 °F 46 °F 33% 29.90 in 22 mi North 21.9 mph - -   Clear
11:00 AM 69.8 °F 46.4 °F 43% 29.89 in 6.2 mi North 21.9 mph - N/A   Unknown
11:30 AM 69.8 °F 46.4 °F 43% 29.89 in 6.2 mi NNW 23.0 mph - N/A   Unknown
12:00 PM 71 °F 47 °F 30% 29.91 in 34 mi NNW 23.0 mph - -   Clear
12:00 PM 71.6 °F 46.4 °F 41% 29.89 in 6.2 mi NNW 23.0 mph - N/A   Unknown
12:30 PM 71.6 °F 46.4 °F 41% 29.89 in 6.2 mi NNW 21.9 mph - N/A   Unknown
1:00 PM 72 °F 44 °F 26% 29.91 in 28 mi North 23.0 mph - -   Clear
1:00 PM 71.6 °F 44.6 °F 38% 29.89 in 6.2 mi North 23.0 mph - N/A   Unknown
1:30 PM 75.2 °F 44.6 °F 34% 29.89 in 6.2 mi NNW 25.3 mph - N/A   Unknown
2:00 PM 76 °F 43 °F 20% 29.90 in 25 mi NNW 25.3 mph - -   Clear
2:00 PM 77.0 °F 42.8 °F 29% 29.89 in 6.2 mi NNW 25.3 mph - N/A   Unknown
2:30 PM 75.2 °F 42.8 °F 31% 29.89 in 6.2 mi North 24.2 mph - N/A   Unknown
3:00 PM 74 °F 43 °F 22% 29.89 in 28 mi North 19.6 mph - -   Clear
3:00 PM 75.2 °F 42.8 °F 31% 29.89 in 6.2 mi North 19.6 mph - N/A   Unknown
3:30 PM 77.0 °F 41.0 °F 28% 29.86 in 6.2 mi NNW 24.2 mph - N/A   Unknown
4:00 PM 77 °F 43 °F 20% 29.88 in 25 mi NNW 25.3 mph - -   Clear
4:00 PM 77.0 °F 42.8 °F 29% 29.86 in 6.2 mi NNW 25.3 mph - N/A   Unknown
4:30 PM 77.0 °F 44.6 °F 32% 29.86 in 6.2 mi NNW 23.0 mph - N/A   Unknown
5:00 PM 76 °F 45 °F 22% 29.88 in 22 mi NNW 20.7 mph - -   Clear
5:00 PM 77.0 °F 44.6 °F 32% 29.86 in 6.2 mi NNW 20.7 mph - N/A   Unknown
5:30 PM 75.2 °F 44.6 °F 34% 29.86 in 6.2 mi North 17.3 mph - N/A   Unknown
6:00 PM 77 °F 43 °F 19% 29.88 in 12 mi North 19.6 mph - -   Clear
6:00 PM 77.0 °F 42.8 °F 29% 29.86 in 6.2 mi North 19.6 mph - N/A   Unknown
6:30 PM 75.2 °F 42.8 °F 31% 29.89 in 6.2 mi North 19.6 mph - N/A   Unknown
7:00 PM 76 °F 43 °F 21% 29.89 in 34 mi North 18.4 mph - -   Clear
7:00 PM 77.0 °F 42.8 °F 29% 29.89 in 6.2 mi North 18.4 mph - N/A   Unknown
7:30 PM 75.2 °F 42.8 °F 31% 29.89 in 6.2 mi North 15.0 mph - N/A   Unknown
8:00 PM 75 °F 44 °F 23% 29.90 in 34 mi North 15.0 mph - -   Clear
8:00 PM 75.2 °F 44.6 °F 34% 29.89 in 6.2 mi North 15.0 mph - N/A   Unknown
8:30 PM 73.4 °F 42.8 °F 33% 29.89 in 6.2 mi NNW 13.8 mph - N/A   Unknown
9:00 PM 72 °F 43 °F 24% 29.91 in 37 mi North 11.5 mph - -   Clear
9:00 PM 71.6 °F 42.8 °F 35% 29.89 in 6.2 mi North 11.5 mph - N/A   Unknown
9:30 PM 69.8 °F 44.6 °F 40% 29.89 in 6.2 mi North 10.4 mph - N/A   Unknown
10:00 PM 69 °F 45 °F 31% 29.92 in 37 mi NNW 10.4 mph - -   Clear
10:00 PM 68.0 °F 44.6 °F 43% 29.92 in 6.2 mi NNW 10.4 mph - N/A   Unknown
10:30 PM 66.2 °F 46.4 °F 49% 29.92 in 6.2 mi NNW 11.5 mph - N/A   Unknown
11:00 PM 68 °F 46 °F 35% 29.93 in 37 mi NNW 16.1 mph - -   Clear
11:00 PM 68.0 °F 46.4 °F 46% 29.92 in 6.2 mi NNW 16.1 mph - N/A   Unknown
11:30 PM 68.0 °F 46.4 °F 46% 29.92 in 6.2 mi NNW 17.3 mph - N/A   Unknown